Location: ????????
(54.6123°N, 39.2099°E)
Time: 02:30:44
(UTC+00:00)

CZ-2C R/B - Pass Details

Date: 19 May 2025
Orbit: 782 x 867 km, 98.4° (Epoch: 13 June)

Event Time Altitude Azimuth Distance (km) Brightness Sun altitude
Exits shadow 20:55:02 - 119° (ESE) 2,685 5.0 -15.2°
Reaches altitude 10° 20:56:00 10° 114° (ESE) 2,350 4.7 -15.3°
Maximum altitude 21:00:20 28° 57° (ENE) 1,448 4.2 -15.3°
Drops below altitude 10° 21:04:40 10° 0° (N) 2,354 6.4 -15.4°
Sets 21:07:16 0° 350° (N) 3,289 7.6 -15.4°
